Welcome to the New NWS' Forecast!
Most changes are behind the scenes, but click here for differences you might notice.

Regional Weather Roundup (RWR)

Issued by Gray - Portland, ME (GYX)

                            
000
ASUS41 KGYX 160710
RWRGYX
WEATHER ROUNDUP FOR MAINE AND NEW HAMPSHIRE
NATIONAL WEATHER SERVICE GRAY ME
200 AM EST FRI NOV 16 2018

MEZ002-005-006-010-012-015-018-020-021-024-026-027-029-160800-
MAINE
  
CITY           SKY/WX    TMP DP  RH WIND       PRES   REMARKS
PORTLAND       SNOW      27  25  92 NE13      30.10F VSB 1/2 WCI  16  
SANFORD        SNOW      27  25  93 NE13      30.05F VSB 1/2 WCI  16  
BAR HARBOR     CLOUDY    29  17  61 NE6       30.24F                  
WISCASSET      LGT SNOW  27  25  92 VRB3      30.17F VSB 1            
ROCKLAND       LGT SNOW  31  29  92 E13G22    30.16F FOG              
FRYEBURG       LGT SNOW  22  18  85 N8        30.12F VSB 3/4          
LEWISTONAUBURN LGT SNOW  23  21  92 NE10      30.13F FOG     WCI  12  
AUGUSTA        LGT SNOW  24  15  68 NE7       30.17F                  
WATERVILLE     CLOUDY    25  12  58 MISG      30.13F                  
BANGOR         CLOUDY    27   9  46 E6        30.24F                  
GREENVILLE       N/A     18   7  62 SE7       30.11F                  
MILLINOCKET    FAIR      19  15  84 CALM      30.24F                  
HOULTON        FAIR      18  12  77 CALM      30.22F                  
PRESQUE ISLE   FAIR      11   8  88 CALM      30.23F                  
FRENCHVILLE    FAIR      14   6  70 SE3       30.18F                  
CARIBOU        FAIR      12   7  80 NE3       30.21F                  
$$

NHZ002-005-008-009-011-012-014-160800-
NEW HAMPSHIRE
  
CITY           SKY/WX    TMP DP  RH WIND       PRES   REMARKS
PORTSMOUTH     FOG       33  32  97 E12       30.01F VSB 1            
ROCHESTER      HVY SNOW  27  26  96 NE10      30.01F VSB 1/4 WCI  17  
NASHUA         LGT SNOW  28  28 100 NE3       29.96F FOG              
MANCHESTER     LGT SNOW  30  28  92 N8        29.97F VSB 3/4          
CONCORD        SNOW      26  24  92 NE7       30.01F VSB 1/2          
LACONIA        LGT SNOW  25  21  86 MISG      30.01F VSB 1            
PLYMOUTH       LGT SNOW  24  22  92 SE3       30.04F                  
BERLIN         LGT SNOW  21  15  78 E5        30.05F                  
WHITEFIELD     LGT SNOW  23  17  78 E9        29.99F                  
JAFFREY        LGT SNOW  29  28  96 VRB7      29.91F FOG              
KEENE          LGT SNOW  29  25  85 VRB3      29.92F FOG              
LEBANON        LGT SNOW  25  20  81 N7        29.97F                  
MT WASHINGTON  SNOW      12  12 100 SE48G60     N/A  VSB 1/16WCI -13  
$$

VTZ005-007-008-160800-
VERMONT
  
CITY           SKY/WX    TMP DP  RH WIND       PRES   REMARKS
ST JOHNSBURY     N/A     20  19  96 MISG      29.99F                  
MONTPELIER     LGT SNOW  19  19 100 CALM      30.00F FOG              
BURLINGTON     LGT SNOW  25  21  85 E6        29.97F FOG              
$$

MAZ007-012-024-CTZ003-RIZ002-NYZ038-NYZ072-160800-
SOUTHERN NEW ENGLAND AND NY
  
CITY           SKY/WX    TMP DP  RH WIND       PRES   REMARKS
BOSTON         LGT RAIN  37  34  89 E33G40    29.94F VSB 3/4          
WORCESTER      LGT SNOW  30  29  96 E20G31    29.82F FOG     WCI  17  
NANTUCKET      RAIN      42  40  92 E22G38    29.84F FOG              
PROVIDENCE     MIX PCPN  34  33  96 NE22G31   29.85F                  
HARTFORD       LGTSLEET  32  30  92 NE16      29.84F VSB 1            
ALBANY         LGTSLEET  27  22  81 N7        29.87F                  
NEW YORK CITY  LGT RAIN  41  37  86 E23G36    29.65F                  
$$

ANZ081-ANZ082-ANZ150-NHZ014-MEZ023>029-160800-
COASTAL MARINE OBSERVATIONS
  
STATION/POSITION TIME  TEMP    WIND        PRES    WAVE
                       AIR SEA DIR/SP/G            HT/PER
                 (UTC) (F)     (DEG/KT/KT) (MB)    (FT/S)
MOUNT DESERT ROC 0700   32      90/ 23/ 25 1022.4F
MATINICUS ROCK   0600   36     110/ 23/ 26 1022.5F
ISLE OF SHOALS   0600   33     100/ 34/ 37 1017.4F
$$

.............KEY..............
   WCI - WIND CHILL
   TC  - TEMPERATURE IN CELSIUS
   VSB - VISIBILITY IN MILES
   HX  - HEAT INDEX
   FAIR- INDICATES FEW OR NO CLOUDS BELOW 12,000 FT, WITH NO 
         SIGNIFICANT WEATHER AND/OR OBSTRUCTIONS TO VISIBILITY.